[Iaude] MPEC N104: 2024 NK2 [a=1.94,e=0.35,i=4.8,H=23.7]
    mpec at cfa.harvard.edu 
    mpec at cfa.harvard.edu
       
    Mon Jul  8 17:36:37 EDT 2024
    
    
  
M.P.E.C. 2024-N104                                 Issued 2024 July 8, 21:33 UT
     The Minor Planet Electronic Circulars contain information on unusual
         minor planets, routine data on comets and natural satellites,
         and occasional editorial announcements.  They are published
    on behalf of Division F of the International Astronomical Union by the
          Minor Planet Center, Smithsonian Astrophysical Observatory,
                          Cambridge, MA 02138, U.S.A.
			  
             Prepared using the Tamkin Foundation Computer Network
                              MPC at CFA.HARVARD.EDU
            URL https://www.minorplanetcenter.net/    ISSN 1523-6714
                                    2024 NK2                                    
Observations:
     K24N02K  C2024 06 12.49247819 37 11.608-38 44 52.36         22.75GVEN104F51
     K24N02K  C2024 06 12.49972719 37 12.240-38 44 49.07         22.67GVEN104F51
     K24N02K  C2024 06 16.48987219 43 51.712-38 10 51.56         22.71GVEN104F51
     K24N02K  C2024 06 16.49699919 43 52.249-38 10 47.48         22.46GVEN104F51
     K24N02K* C2024 07 06.44919020 04 36.912-33 25 43.95         21.71wXEN104F51
     K24N02K  C2024 07 06.45955420 04 37.092-33 25 32.93         21.94wXEN104F51
     K24N02K  C2024 07 06.46994320 04 37.254-33 25 21.27         21.87wXEN104F51
     K24N02K 3C2024 07 07.46530020 05 08.758-33 06 50.84         21.77GVEN104T14
     K24N02K 3C2024 07 07.46627620 05 08.772-33 06 49.71         21.69GVEN104T14
     K24N02K 3C2024 07 07.46725420 05 08.784-33 06 48.71         21.74GVEN104T14
     K24N02K |C2024 07 08.26466020 05 31.880-32 51 20.20         21.8 GVEN104807
     K24N02K |C2024 07 08.27371020 05 32.010-32 51 09.10         21.1 GVEN104807
     K24N02K |C2024 07 08.28244020 05 32.120-32 50 59.30         21.4 GVEN104807
Observer details:
807 Cerro Tololo Observatory, La Serena.  Observers T. Linder, R. Holmes.
    0.61-m f/6.8 Ritchey-Chretien + CCD.
F51 Pan-STARRS 1, Haleakala.  Observers J. Herman, T. Lowe, P. Minguez, A.
    Schultz, I. Smith.  Measurers K. Chambers, T. de Boer, J. Fairlamb, H.
    Gao, M. Huber, C.-C. Lin, E. Magnier, Y. Ramanjooloo, R. Wainscoat, R.
    Weryk.  1.8-m Ritchey-Chretien + CCD.
T14 Canada-France-Hawaii Telescope, Maunakea.  Observers R. Wainscoat, H.
    Januszewski, H. Flewelling.  Measurers R. Weryk, R. Wainscoat.  3.6-m
    f/4.1 reflector + CCD.
Orbital elements:
2024 NK2                                                 Earth MOID = 0.2500 AU
Epoch 2024 Mar. 31.0 TT = JDT 2460400.5                 Alexandersen            
M 328.46778              (2000.0)            P               Q                  
n   0.36406369     Peri.  318.65232     +0.14016651     +0.98864521             
a   1.9424558      Node   319.31899     -0.88519099     +0.10061324             
e   0.3516944      Incl.    4.76659     -0.44361049     +0.11161372             
P   2.71           H   23.75          G   0.15           U   7                  
Residuals in seconds of arc
240612 F51  0.1+  0.2-    240706 F51  0.0   0.2-    240708 807  0.2+  0.1-
240612 F51  0.2-  0.0     240706 F51  0.2-  0.1+    240708 807  0.2+  0.5+
240616 F51  0.2+  0.1+    240707 T14  0.1+  0.1+    240708 807  0.0   0.1+
240616 F51  0.1-  0.2+    240707 T14  0.1+  0.1+
240706 F51  0.1-  0.1+    240707 T14  0.0   0.0
Ephemeris:
2024 NK2                 a,e,i = 1.94, 0.35, 5                   q = 1.2593
Date    TT    R. A. (2000) Decl.     Delta      r    Elong.  Phase     V
2024 06 08    19 28 45.1 -39 12 53   0.2954  1.2694   145.5    27.0    22.8
...
2024 06 23    19 52 55.9 -36 57 34   0.2653  1.2595   153.6    21.0    22.4
...
2024 07 01    20 00 58.5 -35 00 20   0.2575  1.2602   158.9    16.9    22.2
...
2024 07 07    20 04 54.1 -33 15 06   0.2557  1.2635   163.1    13.5    22.1
2024 07 08    20 05 24.6 -32 56 20   0.2557  1.2643   163.8    13.0    22.1
2024 07 09    20 05 52.8 -32 37 17   0.2559  1.2651   164.5    12.4    22.0
...
2024 07 15    20 08 04.3 -30 37 41   0.2591  1.2715   168.7     9.0    21.9
...
2024 07 23    20 09 56.4 -27 50 18   0.2695  1.2834   172.2     6.1    21.9
...
2024 08 07    20 13 23.4 -22 47 56   0.3090  1.3157   165.6    11.1    22.5
M. P. C. Staff               (C) Copyright 2024 MPC           M.P.E.C. 2024-N104
    
    
More information about the Iaude
mailing list